Regional Weather Roundup
Issued by NWS

Home | Current Version | Previous Version | Text Only | Print | Product List | Glossary Off
Versions: 1 2 3 4 5 6 7 8 9 10 11 12 13 14 15 16 17 18 19 20 21 22 23 24 25 26 27

000
ASUS45 KBOU 170807
RWRCO

WEATHER ROUNDUP FOR COLORADO
NATIONAL WEATHER SERVICE DENVER/BOULDER CO
200 AM MDT THU AUG 17 2017

NOTE: "FAIR" INDICATES FEW OR NO CLOUDS BELOW 12000 FEET WITH NO
SIGNIFICANT WEATHER AND/OR OBSTRUCTIONS TO VISIBILITY.

COZ001>005-013-030-031-170900-
...NORTHWEST COLORADO...

CITY           SKY/WX    TMP DP  RH WIND       PRES   REMARKS
CRAIG          FAIR      48  40  73 CALM      30.22S
HAYDEN         FAIR      50  39  66 E9        30.25F
MEEKER         FAIR      48  39  71 NE7       30.25R
RABBIT EARS PA FAIR      46  32  57 W5        30.48S
STEAMBOAT SPGS FAIR      46  39  78 CALM      30.26S
WALDEN         FAIR      37  34  87 SE7       30.35F
$$

COZ006>008-011-170900-
...WEST CENTRAL VALLEYS...

CITY           SKY/WX    TMP DP  RH WIND       PRES   REMARKS
GRAND JUNCTION FAIR      65  39  38 E6        30.11S
MONTROSE       FAIR      59  38  45 SE10      30.19S
EAGLE          FAIR      51  36  56 SE6       30.28S
RIFLE          FAIR      59  38  45 SE6       30.18R
DELTA          FAIR      62  35  36 NE6       30.16S
NUCLA          FAIR      57  32  38 SE7       30.23S
$$

COZ017>023-064>068-170900-
...SOUTHWEST COLORADO...

CITY           SKY/WX    TMP DP  RH WIND       PRES   REMARKS
DURANGO        FAIR      50  32  50 CALM      30.24S
CORTEZ         FAIR      49  34  56 NE5       30.20S
PAGOSA SPRINGS FAIR      46  29  51 CALM      30.32S
TELLURIDE      FAIR      50  31  48 SE7       30.43S
WOLF CREEK PAS FAIR      45  23  42 SW6       30.63F
$$

COZ009-010-012-014-032>034-037-058>063-170900-
...CENTRAL COLORADO...

CITY           SKY/WX    TMP DP  RH WIND       PRES   REMARKS
ASPEN          FAIR      50  37  61 S9        30.32S
BUENA VISTA    FAIR      46  37  73 W6        30.37S
COPPER MTN     FAIR      45  28  53 W9        30.59S
BERTHOUD PASS  FAIR      36  32  87 W18       30.59S
COTTONWOOD PAS FAIR      52  39  62 CALM      30.47S
GUNNISON       FAIR      46  38  73 N7        30.34S
KREMMLING      FAIR      45  39  81 CALM      30.34S
LEADVILLE      FAIR      40  31  70 CALM      30.45S
SALIDA         FAIR      55  46  73 W5        30.41S
SUNLIGHT       FAIR      46  30  53 NW5       30.53F
WILKERSON PASS MOCLDY    41  39  93 SW3       30.57S
$$

COZ069>075-170900-
...SAN LUIS VALLEY/SANGRE DE CRISTO MOUNTAINS...

CITY           SKY/WX    TMP DP  RH WIND       PRES   REMARKS
ALAMOSA        FAIR      48  43  82 S6        30.29S
DEL NORTE      CLOUDY    54  36  51 W9        30.33S
LA VETA PASS   NOT AVBL
SAGUACHE       CLOUDY    55  32  41 CALM      30.33R
$$

COZ035-036-038>040-170900-
...NORTHERN COLORADO FRONT RANGE...

CITY           SKY/WX    TMP DP  RH WIND       PRES   REMARKS
DENVER INTL AP FAIR      56  48  74 S9        30.17S
DMNS CITY PARK   N/A     58  49  72 E8        30.17S
AURORA         PTCLDY    57  49  76 S10       30.19F
FRONT RANGE AP FAIR      59  50  72 S8        30.19S
ERIE MUNI ARPT FAIR      54  52  92 CALM      30.21F
BOULDER MUN AP FAIR      59  50  72 CALM      30.17R
CENTENNIAL     FAIR      58  49  72 S8        30.20F
BROOMFIELD     NOT AVBL
FORT COLLINS   FAIR      57  51  80 SW5       30.15F
LONGMONT       FAIR      56  49  77 CALM      30.18R
$$

COZ041-046-047-076>085-087-088-170900-
...PIKES PEAK/PALMER DIVIDE AND SOUTHERN FOOTHILLS...

CITY           SKY/WX    TMP DP  RH WIND       PRES   REMARKS
COLO. SPRINGS  MOCLDY    60  51  72 CALM      30.27R
A. F. ACADEMY  CLOUDY    51  51  98 N6        30.26F
SCHRIEVER AFB  MOCLDY    59  46  61 SW12      30.27R
CHEYENNE MTN   MOCLDY    62  46  55 S10       30.24F
ELLICOTT       FAIR     N/A N/A N/A CALM      30.25R
FALCON         FAIR      57  46  68 SW6       30.30S
FORT CARSON    CLOUDY    59  51  73 W3        30.24R
LIMON          FAIR      49  48  97 CALM      30.20S
MONUMENT HILL  FAIR      52  46  82 S8        30.30F
CANON CITY     PTCLDY    64  54  68 CALM      30.22S
WALSENBURG     FAIR      55  52  88 CALM      30.25F
TRINIDAD       FAIR      56  50  80 W7        30.24S
$$

COZ042>045-048>051-090-091-170900-
...NORTHEAST COLORADO...

CITY           SKY/WX    TMP DP  RH WIND       PRES   REMARKS
GREELEY ARPT   FAIR      54  52  93 NE6       30.14S
AKRON          FAIR      57  51  80 S7        30.14S
BURLINGTON     FAIR      56  53  90 S3        30.13S
WRAY           NOT AVBL
YUMA           FAIR      52  50  93 SW5       30.11F
STERLING       FAIR      54  52  94 SW3       30.09S
HOLYOKE        FAIR      54  50  87 SW5       30.09S
FORT MORGAN    FAIR      57  49  75 CALM      30.14F
$$

COZ086-089-092>099-170900-
...SOUTHEAST COLORADO...

CITY           SKY/WX    TMP DP  RH WIND       PRES   REMARKS
PUEBLO         CLOUDY    65  54  67 CALM      30.18R
LA JUNTA       FAIR      63  54  72 NW5       30.16R
LAMAR          MOCLDY    61  57  87 CALM      30.10S
SPRINGFIELD      N/A     59  54  83 CALM      30.15F
$$




USA.gov is the U.S. government's official web portal to all federal, state and local government web resources and services.